Find Starlink 5237

NORAD ID: 54196 Int'l Des: 2022-141 Owner: SPXS Country: US Constellation: starlink operational
LEOCIRCULAR

实时位置

正在加载3D地球...

关于 Starlink 5237

正在加载描述...

即将过境

Passes for default location (London). Set your location on the main map for personalized predictions.

高度历史

Loading altitude history...

两行轨道根数

1 54196U 22141AR 26106.73876935 .00000476 00000-0 47987-4 0 9994
2 54196 53.2176 183.1955 0000961 83.4522 276.6580 15.08841798191740
Epoch: Apr 16, 2026 • Age: 14 hours

当前状态

高度 555.1 km
速度 7.58 km/s
星下点 -43.98°S, 172.65°E
发射日期 Oct 28, 2022
运行时间 3.4 years
类型 internet

技术详情

分类 Payload
质量 305.00 kg
干质量 290.00 kg
总质量 305.00 kg
长度 0.20 m
直径 2.80 m
跨度 9.00 m
形状 Box + pan
制造商 SPXS
平台类型 Starlink
阶段状态 In Orbit
所有者/国家 SPXS/US

Most Searched